| time (UTC) | temp F | wind direction | speed knots | gust knots | rain 1hr in | rain 24hr in | rain mn in | humidity % | barometer mb |
| 20260502224558 | 67 | 336 | 0.0 | 3.5 | 0.00 | 0.03 | 0.01 | 19 | 1018.1 |
| 20260502223056 | 68 | 336 | 0.9 | 3.5 | 0.00 | 0.03 | 0.01 | 19 | 1018.3 |
| 20260502221622 | 66 | 0 | 0.9 | 6.1 | 0.00 | 0.03 | 0.01 | 19 | 1018.4 |
| 20260502220108 | 67 | 340 | 1.7 | 5.2 | 0.00 | 0.03 | 0.01 | 22 | 1018.7 |
| 20260502214603 | 66 | 338 | 1.7 | 7.0 | 0.00 | 0.03 | 0.01 | 23 | 1018.9 |
| 20260502213100 | 66 | 271 | 2.6 | 7.0 | 0.00 | 0.03 | 0.01 | 24 | 1019.2 |
| 20260502211600 | 66 | 324 | 0.9 | 5.2 | 0.00 | 0.03 | 0.01 | 22 | 1019.4 |
| 20260502210129 | 66 | 342 | 0.9 | 8.7 | 0.00 | 0.03 | 0.01 | 23 | 1019.5 |
| 20260502204558 | 65 | 0 | 1.7 | 7.8 | 0.00 | 0.03 | 0.01 | 25 | 1019.6 |
| 20260502203059 | 65 | 339 | 0.9 | 7.0 | 0.00 | 0.03 | 0.01 | 24 | 1019.7 |
| 20260502201559 | 67 | 13 | 2.6 | 7.8 | 0.00 | 0.03 | 0.01 | 19 | 1019.9 |
| 20260502200126 | 67 | 360 | 1.7 | 5.2 | 0.00 | 0.03 | 0.01 | 22 | 1020.0 |
| 20260502194603 | 65 | 324 | 1.7 | 7.0 | 0.00 | 0.03 | 0.01 | 25 | 1020.2 |
| 20260502193100 | 64 | 355 | 0.9 | 7.0 | 0.00 | 0.03 | 0.01 | 29 | 1020.3 |
| 20260502191604 | 64 | 355 | 2.6 | 7.0 | 0.00 | 0.03 | 0.01 | 21 | 1020.5 |
| 20260502184602 | 63 | 346 | 1.7 | 8.7 | 0.00 | 0.03 | 0.01 | 23 | 1020.6 |
| 20260502183101 | 64 | 337 | 2.6 | 9.6 | 0.00 | 0.03 | 0.01 | 22 | 1020.6 |
| 20260502181604 | 64 | 348 | 1.7 | 7.8 | 0.00 | 0.03 | 0.01 | 30 | 1020.8 |
| 20260502170107 | 59 | 333 | 0.9 | 3.5 | 0.00 | 0.03 | 0.01 | 38 | 1021.2 |
| 20260502163059 | 55 | 0 | 0.0 | 2.6 | 0.00 | 0.03 | 0.01 | 39 | 1021.5 |
| 20260502161606 | 53 | 0 | 0.0 | 2.6 | 0.00 | 0.03 | 0.01 | 43 | 1021.7 |
| 20260502151613 | 45 | 219 | 0.0 | 2.6 | 0.00 | 0.03 | 0.01 | 52 | 1022.3 |
| 20260502130106 | 33 | 0 | 0.0 | 2.6 | 0.00 | 0.03 | 0.01 | 67 | 1022.5 |
| 20260502123059 | 33 | 229 | 0.0 | 3.5 | 0.00 | 0.03 | 0.01 | 67 | 1022.5 |
| 20260502121558 | 33 | 0 | 0.0 | 2.6 | 0.00 | 0.03 | 0.01 | 66 | 1022.5 |
| 20260502114600 | 34 | 0 | 0.9 | 6.1 | 0.00 | 0.03 | 0.01 | 65 | 1022.5 |
| 20260502113059 | 34 | 280 | 0.9 | 4.3 | 0.00 | 0.03 | 0.01 | 66 | 1022.5 |
| 20260502111601 | 33 | 226 | 0.9 | 3.5 | 0.00 | 0.03 | 0.01 | 68 | 1022.6 |
| 20260502110103 | 33 | 0 | 0.0 | 0.0 | 0.00 | 0.03 | 0.01 | 68 | 1022.6 |
| 20260502104601 | 34 | 0 | 0.0 | 2.6 | 0.00 | 0.03 | 0.01 | 66 | 1022.7 |
| 20260502103107 | 34 | 275 | 0.0 | 3.5 | 0.00 | 0.03 | 0.01 | 66 | 1022.7 |
| 20260502101618 | 35 | 251 | 0.9 | 4.3 | 0.00 | 0.03 | 0.01 | 65 | 1022.6 |
| 20260502100105 | 35 | 0 | 0.0 | 2.6 | 0.00 | 0.03 | 0.01 | 65 | 1022.6 |
| 20260502090116 | 37 | 211 | 1.7 | 6.1 | 0.00 | 0.03 | 0.01 | 63 | 1022.7 |
| 20260502080109 | 37 | 0 | 0.0 | 2.6 | 0.00 | 0.03 | 0.01 | 65 | 1022.9 |
| 20260502070113 | 36 | 0 | 0.0 | 2.6 | 0.01 | 0.03 | 0.01 | 68 | 1022.7 |
| 20260502064623 | 36 | 0 | 0.0 | 2.6 | 0.03 | 0.03 | 0.01 | 68 | 1022.6 |
| 20260502063059 | 36 | 0 | 0.0 | 0.0 | 0.02 | 0.02 | 0.00 | 71 | 1022.5 |
| 20260502061601 | 36 | 0 | 0.0 | 1.7 | 0.02 | 0.02 | 0.00 | 69 | 1022.4 |
| 20260502060100 | 38 | 0 | 0.0 | 0.0 | 0.02 | 0.02 | 0.00 | 68 | 1022.4 |
| 20260502054612 | 39 | 0 | 0.0 | 0.0 | 0.00 | 0.00 | 0.00 | 59 | 1022.4 |
| 20260502053058 | 39 | 0 | 0.0 | 0.0 | 0.00 | 0.00 | 0.00 | 58 | 1022.3 |
| 20260502051601 | 39 | 0 | 0.0 | 0.9 | 0.00 | 0.00 | 0.00 | 58 | 1022.3 |
| 20260502050057 | 40 | 0 | 0.0 | 1.7 | 0.00 | 0.00 | 0.00 | 56 | 1022.3 |
| 20260502044600 | 41 | 0 | 0.0 | 0.9 | 0.00 | 0.00 | 0.00 | 55 | 1022.1 |
| 20260502043100 | 42 | 0 | 0.0 | 0.0 | 0.00 | 0.00 | 0.00 | 52 | 1022.1 |
| 20260502041607 | 43 | 0 | 0.0 | 0.0 | 0.00 | 0.00 | 0.00 | 50 | 1021.9 |
| 20260502040058 | 45 | 0 | 0.0 | 0.0 | 0.00 | 0.00 | 0.00 | 47 | 1021.6 |
| 20260502034557 | 46 | 0 | 0.0 | 0.9 | 0.00 | 0.00 | 0.00 | 46 | 1021.5 |
| 20260502033117 | 48 | 0 | 0.0 | 1.7 | 0.00 | 0.00 | 0.00 | 42 | 1021.2 |
| 20260502031602 | 50 | 0 | 0.0 | 0.0 | 0.00 | 0.00 | 0.00 | 40 | 1020.8 |
| 20260502030101 | 51 | 360 | 0.0 | 0.0 | 0.00 | 0.00 | 0.00 | 38 | 1020.5 |
| 20260502024609 | 52 | 0 | 0.0 | 0.0 | 0.00 | 0.00 | 0.00 | 36 | 1020.3 |
| 20260502023135 | 54 | 0 | 0.0 | 0.0 | 0.00 | 0.00 | 0.00 | 34 | 1020.2 |
| 20260502021603 | 56 | 0 | 0.0 | 0.0 | 0.00 | 0.00 | 0.00 | 31 | 1020.1 |
| 20260502020101 | 59 | 0 | 0.0 | 0.0 | 0.00 | 0.00 | 0.00 | 30 | 1019.9 |
| 20260502014558 | 61 | 0 | 0.0 | 0.9 | 0.00 | 0.00 | 0.00 | 27 | 1019.8 |
| 20260502013103 | 63 | 0 | 0.0 | 1.7 | 0.00 | 0.00 | 0.00 | 25 | 1019.8 |
| 20260502011603 | 64 | 0 | 0.0 | 2.6 | 0.00 | 0.00 | 0.00 | 25 | 1019.9 |
| 20260502010058 | 65 | 338 | 0.0 | 1.7 | 0.00 | 0.00 | 0.00 | 26 | 1019.8 |
| 20260502004600 | 64 | 5 | 0.9 | 3.5 | 0.00 | 0.00 | 0.00 | 26 | 1019.9 |
| 20260502003058 | 64 | 0 | 0.9 | 7.0 | 0.00 | 0.00 | 0.00 | 24 | 1019.9 |
| 20260502001637 | 65 | 349 | 0.9 | 7.0 | 0.00 | 0.00 | 0.00 | 26 | 1019.9 |
| 20260502000120 | 66 | 60 | 0.0 | 3.5 | 0.00 | 0.00 | 0.00 | 24 | 1019.9 |
| 20260501234557 | 66 | 0 | 0.0 | 7.0 | 0.00 | 0.00 | 0.00 | 26 | 1019.9 |
| 20260501233059 | 66 | 269 | 0.9 | 5.2 | 0.00 | 0.00 | 0.00 | 24 | 1020.1 |
| 20260501231606 | 65 | 166 | 0.9 | 7.0 | 0.00 | 0.00 | 0.00 | 22 | 1020.1 |
| 20260501230148 | 65 | 325 | 2.6 | 7.0 | 0.00 | 0.00 | 0.00 | 26 | 1020.2 |